DELTA 1 DEB, 21292

Orbit data source: Space-Track

DELTA 1 DEB, 21292 is space debris in SSO originally from a launch on Thu, 12 Jun 1975 UTC launched from the Air Force Western Test Range (AFWTR). Debris objects in space refer to the collection of defunct objects orbiting the Earth. Examples of debris include non-operational satellites, rocket bodies, and fragments generated from explosions, collisions, or faulty payload assembly.

Loading next visibility...
DELTA 1 DEB details
Identifier
21292, 1975-052AD
Orbit
SSO
Last TLE update10 hours ago
Origin
Flag of USGSFC (US)
ManufacturerUnknown
MissionSpacecraft
Bus & MotorUnknown
MassUnknown
Launch date (UTC)
1975-06-12 (50 years ago)
Launch vehicleUnknown
Launch site
Air Force Western Test Range (AFWTR)
Object type
Payload
Rocket body
Debris
Shape & HBRUnknown
Radar Cross SectionSmall (<0.1 m²)

Expand to show TLE details & history

TLE from 10 hours ago
0 DELTA 1 DEB
1 21292U 75052AD  24361.15152932  .00000530  00000-0  67300-3 0  9996
2 21292  99.8417 225.8979 0224764 349.9616 136.0965 13.58282141664383
Epoch: 2024-12-26T03:38Z
Definitive object data (Epoch: 2024-12-26T03:38:12.133Z)
Latitude51.21414°
Longitude-91.38496°
Altitude1,172.025 km
Speed7.212 km/s
True Right ascension03h 53m 12s
True Declination51° 03' 19"
Sunlit
Object was in full shadow at TLE epoch
Visualization TLE readout
Latitude-24.9669°
Longitude81.23296°
Altitude889.113 km
Speed7.487 km/s
Apparent Right ascension18h 34m 59s
Apparent Declination-60° 17' 43"
Sunlit
Object is in daylight
Visualization observer readout
Local Sidereal Time12:51:57
Azimuth144.378° SSE
Elevation-31.954°
Doppler factor1
Orbital elements
Apogee altitude1,205.953 km
Perigee altitude872.522 km
Semi-major axis7,417.374 km
Eccentricity0.0224764
Inclination99.8417°
RAAN225.8979°
Arg. of periapsis349.9616°
True anomaly137.84681°
Mean anomaly136.0965°
Eccentric anomaly136.97519°
Mean motion3.39757 °/min
BSTAR0.000673
Orbital period105.96 mins
Loading maneuver chart data...
Loading historical data...
Loading historical data...
Loading historical data...
Loading historical data...
Loading historical data...
Loading historical data...
Loading historical data...

DELTA 1 DEB Visibility forecast

Observer location: undefined°, undefined

Span
Click to sort rows by Start time (UTC) header in descending order
Start Az.
Max El. time (UTC)
Max El. Az.
Max El.
End time (UTC)
End Az.
7 mins2024-12-26 13:47:15.738Z100.178° ESE2024-12-26 13:50:15.738Z64.807° ENE20.087°2024-12-26 13:54:15.738Z18.112° NNE
10 mins2024-12-26 15:30:15.738Z183.499° SSW2024-12-26 15:34:15.738Z242.805° WSW39.745°2024-12-26 15:40:15.738Z336.373° NNW
8 mins2024-12-27 02:38:15.738Z59.563° ENE2024-12-27 02:41:15.738Z88.36° E17.992°2024-12-27 02:46:15.738Z133.366° SE
12 mins2024-12-27 04:21:15.738Z11.031° NNE2024-12-27 04:26:15.738Z318.202° NNW44.232°2024-12-27 04:33:15.738Z203.015° SW
5 mins2024-12-27 06:08:15.738Z321.533° NNW2024-12-27 06:10:15.738Z302.445° NW15.05°2024-12-27 06:13:15.738Z276.025° WNW
|